﻿測定場所 (Monitoring sites),日付 (Measurement date),時間 (Measurement time),線量率 最大値 (max) μGy/h,線量率 最小値 (min) μGy/h,線量率 平均値 (average) μGy/h,
足立 (Adachi),2019-11-17,23:01～24:00,0.0330,0.0282,0.0304,
足立 (Adachi),2019-11-17,22:01～23:00,0.0324,0.0289,0.0305,
足立 (Adachi),2019-11-17,21:01～22:00,0.0322,0.0278,0.0301,
足立 (Adachi),2019-11-17,20:01～21:00,0.0315,0.0277,0.0300,
足立 (Adachi),2019-11-17,19:01～20:00,0.0323,0.0283,0.0299,
足立 (Adachi),2019-11-17,18:01～19:00,0.0325,0.0282,0.0299,
足立 (Adachi),2019-11-17,17:01～18:00,0.0322,0.0283,0.0299,
足立 (Adachi),2019-11-17,16:01～17:00,0.0320,0.0280,0.0300,
足立 (Adachi),2019-11-17,15:01～16:00,0.0318,0.0282,0.0300,
足立 (Adachi),2019-11-17,14:01～15:00,0.0320,0.0279,0.0303,
足立 (Adachi),2019-11-17,13:01～14:00,0.0323,0.0287,0.0307,
足立 (Adachi),2019-11-17,12:01～13:00,0.0328,0.0281,0.0305,
足立 (Adachi),2019-11-17,11:01～12:00,0.0323,0.0282,0.0303,
足立 (Adachi),2019-11-17,10:01～11:00,0.0320,0.0277,0.0302,
足立 (Adachi),2019-11-17,09:01～10:00,0.0320,0.0288,0.0304,
足立 (Adachi),2019-11-17,08:01～09:00,0.0336,0.0294,0.0310,
足立 (Adachi),2019-11-17,07:01～08:00,0.0321,0.0292,0.0309,
足立 (Adachi),2019-11-17,06:01～07:00,0.0330,0.0288,0.0309,
足立 (Adachi),2019-11-17,05:01～06:00,0.0341,0.0293,0.0312,
足立 (Adachi),2019-11-17,04:01～05:00,0.0334,0.0298,0.0315,
足立 (Adachi),2019-11-17,03:01～04:00,0.0337,0.0294,0.0317,
足立 (Adachi),2019-11-17,02:01～03:00,0.0332,0.0296,0.0313,
足立 (Adachi),2019-11-17,01:01～02:00,0.0334,0.0294,0.0311,
足立 (Adachi),2019-11-17,00:01～01:00,0.0329,0.0296,0.0312,
足立 (Adachi),2019-11-16,23:01～24:00,0.0324,0.0290,0.0307,
足立 (Adachi),2019-11-16,22:01～23:00,0.0321,0.0291,0.0306,
足立 (Adachi),2019-11-16,21:01～22:00,0.0323,0.0286,0.0304,
足立 (Adachi),2019-11-16,20:01～21:00,0.0322,0.0283,0.0303,
足立 (Adachi),2019-11-16,19:01～20:00,0.0329,0.0287,0.0303,
足立 (Adachi),2019-11-16,18:01～19:00,0.0323,0.0287,0.0303,
足立 (Adachi),2019-11-16,17:01～18:00,0.0315,0.0282,0.0299,
足立 (Adachi),2019-11-16,16:01～17:00,0.0315,0.0272,0.0298,
足立 (Adachi),2019-11-16,15:01～16:00,0.0320,0.0279,0.0297,
足立 (Adachi),2019-11-16,14:01～15:00,0.0320,0.0283,0.0301,
足立 (Adachi),2019-11-16,13:01～14:00,0.0332,0.0278,0.0302,
足立 (Adachi),2019-11-16,12:01～13:00,0.0318,0.0278,0.0302,
足立 (Adachi),2019-11-16,11:01～12:00,0.0329,0.0289,0.0307,
足立 (Adachi),2019-11-16,10:01～11:00,0.0326,0.0295,0.0308,
足立 (Adachi),2019-11-16,09:01～10:00,0.0332,0.0295,0.0312,
足立 (Adachi),2019-11-16,08:01～09:00,0.0339,0.0294,0.0319,
足立 (Adachi),2019-11-16,07:01～08:00,0.0350,0.0294,0.0320,
足立 (Adachi),2019-11-16,06:01～07:00,0.0344,0.0301,0.0320,
足立 (Adachi),2019-11-16,05:01～06:00,0.0332,0.0297,0.0316,
足立 (Adachi),2019-11-16,04:01～05:00,0.0334,0.0296,0.0315,
足立 (Adachi),2019-11-16,03:01～04:00,0.0331,0.0292,0.0313,
足立 (Adachi),2019-11-16,02:01～03:00,0.0330,0.0297,0.0313,
足立 (Adachi),2019-11-16,01:01～02:00,0.0328,0.0293,0.0309,
足立 (Adachi),2019-11-16,00:01～01:00,0.0325,0.0283,0.0309,
足立 (Adachi),2019-11-15,23:01～24:00,0.0325,0.0290,0.0307,
足立 (Adachi),2019-11-15,22:01～23:00,0.0321,0.0289,0.0304,
足立 (Adachi),2019-11-15,21:01～22:00,0.0324,0.0284,0.0302,
足立 (Adachi),2019-11-15,20:01～21:00,0.0319,0.0272,0.0300,
足立 (Adachi),2019-11-15,19:01～20:00,0.0320,0.0279,0.0299,
足立 (Adachi),2019-11-15,18:01～19:00,0.0314,0.0277,0.0297,
足立 (Adachi),2019-11-15,17:01～18:00,0.0318,0.0274,0.0299,
足立 (Adachi),2019-11-15,16:01～17:00,0.0314,0.0278,0.0298,
足立 (Adachi),2019-11-15,15:01～16:00,0.0313,0.0274,0.0295,
足立 (Adachi),2019-11-15,14:01～15:00,0.0320,0.0284,0.0302,
足立 (Adachi),2019-11-15,13:01～14:00,0.0325,0.0285,0.0298,
足立 (Adachi),2019-11-15,12:01～13:00,0.0322,0.0284,0.0302,
足立 (Adachi),2019-11-15,11:01～12:00,0.0329,0.0277,0.0302,
足立 (Adachi),2019-11-15,10:01～11:00,0.0333,0.0293,0.0308,
足立 (Adachi),2019-11-15,09:01～10:00,0.0322,0.0288,0.0305,
足立 (Adachi),2019-11-15,08:01～09:00,0.0314,0.0279,0.0298,
足立 (Adachi),2019-11-15,07:01～08:00,0.0322,0.0283,0.0299,
足立 (Adachi),2019-11-15,06:01～07:00,0.0333,0.0286,0.0302,
足立 (Adachi),2019-11-15,05:01～06:00,0.0318,0.0278,0.0299,
足立 (Adachi),2019-11-15,04:01～05:00,0.0319,0.0285,0.0302,
足立 (Adachi),2019-11-15,03:01～04:00,0.0318,0.0275,0.0301,
足立 (Adachi),2019-11-15,02:01～03:00,0.0325,0.0281,0.0301,
足立 (Adachi),2019-11-15,01:01～02:00,0.0320,0.0285,0.0306,
足立 (Adachi),2019-11-15,00:01～01:00,0.0327,0.0286,0.0305,
足立 (Adachi),2019-11-14,23:01～24:00,0.0329,0.0289,0.0304,
足立 (Adachi),2019-11-14,22:01～23:00,0.0317,0.0286,0.0301,
足立 (Adachi),2019-11-14,21:01～22:00,0.0319,0.0281,0.0300,
足立 (Adachi),2019-11-14,20:01～21:00,0.0319,0.0287,0.0303,
足立 (Adachi),2019-11-14,19:01～20:00,0.0318,0.0284,0.0300,
足立 (Adachi),2019-11-14,18:01～19:00,0.0327,0.0282,0.0300,
足立 (Adachi),2019-11-14,17:01～18:00,0.0327,0.0287,0.0304,
足立 (Adachi),2019-11-14,16:01～17:00,0.0317,0.0285,0.0301,
足立 (Adachi),2019-11-14,15:01～16:00,0.0316,0.0286,0.0301,
足立 (Adachi),2019-11-14,14:01～15:00,0.0324,0.0284,0.0302,
足立 (Adachi),2019-11-14,13:01～14:00,0.0326,0.0284,0.0303,
足立 (Adachi),2019-11-14,12:01～13:00,0.0328,0.0284,0.0304,
足立 (Adachi),2019-11-14,11:01～12:00,0.0326,0.0281,0.0307,
足立 (Adachi),2019-11-14,10:01～11:00,0.0331,0.0286,0.0310,
足立 (Adachi),2019-11-14,09:01～10:00,0.0340,0.0293,0.0318,
足立 (Adachi),2019-11-14,08:01～09:00,0.0354,0.0311,0.0327,
足立 (Adachi),2019-11-14,07:01～08:00,0.0397,0.0321,0.0347,
足立 (Adachi),2019-11-14,06:01～07:00,0.0358,0.0290,0.0314,
足立 (Adachi),2019-11-14,05:01～06:00,0.0333,0.0293,0.0310,
足立 (Adachi),2019-11-14,04:01～05:00,0.0333,0.0292,0.0310,
足立 (Adachi),2019-11-14,03:01～04:00,0.0362,0.0290,0.0324,
足立 (Adachi),2019-11-14,02:01～03:00,0.0391,0.0295,0.0338,
足立 (Adachi),2019-11-14,01:01～02:00,0.0327,0.0287,0.0307,
足立 (Adachi),2019-11-14,00:01～01:00,0.0327,0.0287,0.0309,
足立 (Adachi),2019-11-13,23:01～24:00,0.0328,0.0294,0.0310,
足立 (Adachi),2019-11-13,22:01～23:00,0.0326,0.0292,0.0311,
足立 (Adachi),2019-11-13,21:01～22:00,0.0323,0.0281,0.0306,
足立 (Adachi),2019-11-13,20:01～21:00,0.0326,0.0281,0.0307,
足立 (Adachi),2019-11-13,19:01～20:00,0.0323,0.0281,0.0307,
足立 (Adachi),2019-11-13,18:01～19:00,0.0322,0.0285,0.0305,
足立 (Adachi),2019-11-13,17:01～18:00,0.0340,0.0282,0.0304,
足立 (Adachi),2019-11-13,16:01～17:00,0.0349,0.0299,0.0322,
足立 (Adachi),2019-11-13,15:01～16:00,0.0343,0.0289,0.0311,
足立 (Adachi),2019-11-13,14:01～15:00,0.0330,0.0286,0.0305,
足立 (Adachi),2019-11-13,13:01～14:00,0.0327,0.0280,0.0304,
足立 (Adachi),2019-11-13,12:01～13:00,0.0337,0.0289,0.0308,
足立 (Adachi),2019-11-13,11:01～12:00,0.0327,0.0288,0.0305,
足立 (Adachi),2019-11-13,10:01～11:00,0.0331,0.0294,0.0309,
足立 (Adachi),2019-11-13,09:01～10:00,0.0329,0.0290,0.0309,
足立 (Adachi),2019-11-13,08:01～09:00,0.0327,0.0287,0.0304,
足立 (Adachi),2019-11-13,07:01～08:00,0.0334,0.0284,0.0306,
足立 (Adachi),2019-11-13,06:01～07:00,0.0323,0.0284,0.0301,
足立 (Adachi),2019-11-13,05:01～06:00,0.0326,0.0288,0.0303,
足立 (Adachi),2019-11-13,04:01～05:00,0.0334,0.0288,0.0305,
足立 (Adachi),2019-11-13,03:01～04:00,0.0324,0.0288,0.0306,
足立 (Adachi),2019-11-13,02:01～03:00,0.0326,0.0286,0.0303,
足立 (Adachi),2019-11-13,01:01～02:00,0.0324,0.0283,0.0301,
足立 (Adachi),2019-11-13,00:01～01:00,0.0324,0.0279,0.0302,
足立 (Adachi),2019-11-12,23:01～24:00,0.0325,0.0277,0.0301,
足立 (Adachi),2019-11-12,22:01～23:00,0.0317,0.0278,0.0300,
足立 (Adachi),2019-11-12,21:01～22:00,0.0318,0.0285,0.0299,
足立 (Adachi),2019-11-12,20:01～21:00,0.0321,0.0280,0.0301,
足立 (Adachi),2019-11-12,19:01～20:00,0.0321,0.0278,0.0299,
足立 (Adachi),2019-11-12,18:01～19:00,0.0322,0.0273,0.0296,
足立 (Adachi),2019-11-12,17:01～18:00,0.0320,0.0274,0.0296,
足立 (Adachi),2019-11-12,16:01～17:00,0.0313,0.0276,0.0295,
足立 (Adachi),2019-11-12,15:01～16:00,0.0320,0.0279,0.0296,
足立 (Adachi),2019-11-12,14:01～15:00,0.0313,0.0276,0.0295,
足立 (Adachi),2019-11-12,13:01～14:00,0.0310,0.0268,0.0290,
足立 (Adachi),2019-11-12,12:01～13:00,0.0310,0.0276,0.0292,
足立 (Adachi),2019-11-12,11:01～12:00,0.0308,0.0275,0.0292,
足立 (Adachi),2019-11-12,10:01～11:00,0.0319,0.0278,0.0298,
足立 (Adachi),2019-11-12,09:01～10:00,0.0330,0.0278,0.0299,
足立 (Adachi),2019-11-12,08:01～09:00,0.0317,0.0282,0.0298,
足立 (Adachi),2019-11-12,07:01～08:00,0.0323,0.0284,0.0301,
足立 (Adachi),2019-11-12,06:01～07:00,0.0328,0.0286,0.0305,
足立 (Adachi),2019-11-12,05:01～06:00,0.0325,0.0284,0.0308,
足立 (Adachi),2019-11-12,04:01～05:00,0.0325,0.0281,0.0303,
足立 (Adachi),2019-11-12,03:01～04:00,0.0325,0.0283,0.0306,
足立 (Adachi),2019-11-12,02:01～03:00,0.0331,0.0283,0.0302,
足立 (Adachi),2019-11-12,01:01～02:00,0.0323,0.0281,0.0299,
足立 (Adachi),2019-11-12,00:01～01:00,0.0321,0.0283,0.0301,
足立 (Adachi),2019-11-11,23:01～24:00,0.0314,0.0281,0.0299,
足立 (Adachi),2019-11-11,22:01～23:00,0.0318,0.0284,0.0302,
足立 (Adachi),2019-11-11,21:01～22:00,0.0327,0.0275,0.0301,
足立 (Adachi),2019-11-11,20:01～21:00,0.0315,0.0276,0.0299,
足立 (Adachi),2019-11-11,19:01～20:00,0.0322,0.0287,0.0304,
足立 (Adachi),2019-11-11,18:01～19:00,0.0352,0.0298,0.0326,
足立 (Adachi),2019-11-11,17:01～18:00,0.0444,0.0344,0.0388,
足立 (Adachi),2019-11-11,16:01～17:00,0.0421,0.0306,0.0353,
足立 (Adachi),2019-11-11,15:01～16:00,0.0324,0.0273,0.0298,
足立 (Adachi),2019-11-11,14:01～15:00,0.0318,0.0278,0.0296,
足立 (Adachi),2019-11-11,13:01～14:00,0.0313,0.0266,0.0294,
足立 (Adachi),2019-11-11,12:01～13:00,0.0308,0.0282,0.0294,
足立 (Adachi),2019-11-11,11:01～12:00,0.0321,0.0279,0.0299,
足立 (Adachi),2019-11-11,10:01～11:00,0.0324,0.0281,0.0300,
足立 (Adachi),2019-11-11,09:01～10:00,0.0320,0.0285,0.0303,
足立 (Adachi),2019-11-11,08:01～09:00,0.0335,0.0279,0.0311,
足立 (Adachi),2019-11-11,07:01～08:00,0.0451,0.0316,0.0367,
足立 (Adachi),2019-11-11,06:01～07:00,0.0532,0.0411,0.0474,
足立 (Adachi),2019-11-11,05:01～06:00,0.0450,0.0374,0.0415,
足立 (Adachi),2019-11-11,04:01～05:00,0.0424,0.0298,0.0353,
足立 (Adachi),2019-11-11,03:01～04:00,0.0329,0.0288,0.0309,
足立 (Adachi),2019-11-11,02:01～03:00,0.0323,0.0289,0.0306,
足立 (Adachi),2019-11-11,01:01～02:00,0.0322,0.0286,0.0304,
足立 (Adachi),2019-11-11,00:01～01:00,0.0317,0.0279,0.0300,
